Fort Rucker / Ozark, AL

9:16 PM CDT on April 23, 2017 (GMT -0500)
Fort Rucker / Ozark

Weather History for KLOR - January, 2014

Change the Weather History Date:

Friday, January 3, 2014

  Actual Average (KOZR) Record (KOZR)
Temperature  
Mean Temperature 34 °F -  
Max Temperature 43 °F 59 °F 78 °F (2000)
Min Temperature 25 °F 37 °F 19 °F (2001)
Degree Days  
Heating Degree Days 31    
Moisture  
Dew Point 18 °F    
Average Humidity 59    
Maximum Humidity 88    
Minimum Humidity 28    
Precipitation  
Precipitation 0.00 in - - ()
Sea Level Pressure  
Sea Level Pressure 30.33 in    
Wind  
Wind Speed 9 mph (North)    
Max Wind Speed 16 mph    
Max Gust Speed 23 mph    
Visibility 10 miles    
Events      
Averages and records for this station are not official NWS values.
T = Trace of Precipitation, MM = Missing Value Source: NWS Daily Summary

Daily Weather History Graph

Daily Weather History Graph

Search for Another Location

Airport or City:

Trip Planner

Search our weather history database for the weather conditions in past years. The results will help you decide how hot, cold, wet, or windy it might be!

Date:

Astronomy

Jan. 03, 2014 Rise Set
Actual Time 6:42 AM CST 4:52 PM CST
Civil Twilight 6:15 AM CST 5:19 PM CST
Nautical Twilight 5:45 AM CST 5:49 PM CST
Astronomical Twilight 5:16 AM CST 6:19 PM CST
Moon 8:18 AM CST (1/3) 7:48 PM CST (1/3)
Length of Visible Light 11h 03m
Length of Day
10h 10m
Waxing Crescent, 8% of the Moon is Illuminated
Jan 3
Waxing Crescent
Jan 7
First Quarter
Jan 15
Full
Jan 23
Last Quarter
Jan 30
New

Hourly Weather History & Observations

Time (CST) Temp. Windchill Dew Point Humidity Pressure Visibility Wind Dir Wind Speed Gust Speed Precip Events Conditions
12:35 AM 32.0 °F 24.8 °F 23.0 °F 69% 30.24 in 10.0 mi NNW 8.1 mph 20.7 mph N/A   Mostly Cloudy
12:53 AM 30.9 °F 22.2 °F 21.9 °F 69% 30.24 in 10.0 mi NNW 10.4 mph - N/A   Scattered Clouds
1:20 AM 30.2 °F 21.3 °F 21.2 °F 69% 30.24 in 10.0 mi NNW 10.4 mph - N/A   Mostly Cloudy
1:40 AM 30.2 °F 20.2 °F 21.2 °F 69% 30.24 in 10.0 mi NNW 12.7 mph - N/A   Scattered Clouds
1:53 AM 30.9 °F 24.3 °F 21.9 °F 69% 30.26 in 10.0 mi NNW 6.9 mph - N/A   Scattered Clouds
2:00 AM 30.2 °F 22.6 °F 21.2 °F 69% 30.26 in 10.0 mi NNW 8.1 mph - N/A   Mostly Cloudy
2:28 AM 30.2 °F 22.6 °F 19.4 °F 64% 30.27 in 10.0 mi North 8.1 mph 17.3 mph N/A   Scattered Clouds
2:53 AM 28.9 °F 17.7 °F 19.0 °F 67% 30.27 in 10.0 mi North 15.0 mph 19.6 mph N/A   Clear
3:53 AM 28.0 °F 17.5 °F 17.1 °F 63% 30.28 in 10.0 mi North 12.7 mph 23.0 mph N/A   Clear
4:53 AM 28.0 °F 19.3 °F 16.0 °F 61% 30.31 in 10.0 mi North 9.2 mph - N/A   Clear
5:53 AM 27.0 °F 16.7 °F 15.1 °F 61% 30.35 in 10.0 mi North 11.5 mph 17.3 mph N/A   Clear
6:53 AM 26.1 °F 18.4 °F 14.0 °F 60% 30.38 in 10.0 mi North 6.9 mph - N/A   Clear
7:53 AM 27.0 °F 16.1 °F 14.0 °F 58% 30.42 in 10.0 mi North 12.7 mph - N/A   Clear
8:53 AM 30.0 °F 20.0 °F 14.0 °F 51% 30.42 in 10.0 mi NNE 12.7 mph 20.7 mph N/A   Clear
9:53 AM 32.0 °F 23.0 °F 15.1 °F 50% 30.41 in 10.0 mi North 11.5 mph 20.7 mph N/A   Clear
10:53 AM 35.1 °F 25.2 °F 15.1 °F 44% 30.39 in 10.0 mi North 16.1 mph - N/A   Clear
11:53 AM 37.9 °F 31.5 °F 15.1 °F 39% 30.36 in 10.0 mi NNE 9.2 mph - N/A   Clear
12:53 PM 41.0 °F 34.3 °F 12.9 °F 32% 30.32 in 10.0 mi NNE 11.5 mph 19.6 mph N/A   Clear
1:53 PM 42.1 °F 38.4 °F 12.0 °F 29% 30.32 in 10.0 mi Variable 5.8 mph 16.1 mph N/A   Clear
2:53 PM 43.0 °F 38.2 °F 12.0 °F 28% 30.31 in 10.0 mi NE 8.1 mph - N/A   Clear
3:53 PM 42.1 °F 38.4 °F 14.0 °F 32% 30.31 in 10.0 mi Variable 5.8 mph 17.3 mph N/A   Clear
4:53 PM 37.9 °F 35.5 °F 15.1 °F 39% 30.32 in 10.0 mi NNE 3.5 mph - N/A   Clear
5:53 PM 35.1 °F 32.2 °F 16.0 °F 46% 30.34 in 10.0 mi NNE 3.5 mph - N/A   Clear
6:53 PM 28.9 °F - 19.0 °F 67% 30.36 in 10.0 mi Calm Calm - N/A   Clear
7:53 PM 28.0 °F - 21.9 °F 78% 30.37 in 10.0 mi Calm Calm - N/A   Clear
8:53 PM 27.0 °F - 21.9 °F 81% 30.36 in 10.0 mi Calm Calm - N/A   Clear
9:53 PM 27.0 °F - 21.9 °F 81% 30.38 in 10.0 mi Calm Calm - N/A   Clear
10:53 PM 25.0 °F - 21.9 °F 88% 30.37 in 10.0 mi Calm Calm - N/A   Clear
11:53 PM 27.0 °F 23.0 °F 19.9 °F 75% 30.35 in 10.0 mi ENE 3.5 mph - N/A   Clear